Regional Weather Roundup
Issued by NWS

Home | Current Version | Previous Version | Graphics & Text | Print | Product List | Glossary On
Versions: 1 2 3 4 5 6 7 8 9 10 11 12 13 14 15 16 17 18 19 20 21 22 23 24 25 26 27 28 29 30 31 32 33 34 35 36 37 38 39 40 41 42 43 44 45 46 47 48 49 50
000
ASUS43 KFSD 190110
RWRSD

WEATHER ROUNDUP FOR SOUTH DAKOTA
NATIONAL WEATHER SERVICE SIOUX FALLS SD
800 PM CDT FRI AUG 18 2017

NOTE: "FAIR" INDICATES FEW OR NO CLOUDS BELOW 12,000 FEET WITH NO
SIGNIFICANT WEATHER AND/OR OBSTRUCTIONS TO VISIBILITY.


SDZ001>005-009-010-012>017-190200-
NORTHWEST AND NORTH CENTRAL SOUTH DAKOTA

CITY           SKY/WX    TMP DP  RH WIND       PRES   REMARKS
BUFFALO          N/A     83  45  26 E5        29.88F
FAITH            N/A     79  50  36 E8        29.95F
MOBRIDGE       CLEAR     74  65  73 SE5       29.91S
$$

SDZ012>016-024>037-041>051-057-063-072>074-190200-
SOUTHWEST AND SOUTH CENTRAL SOUTH DAKOTA

CITY           SKY/WX    TMP DP  RH WIND       PRES   REMARKS
RAPID CTY ARPT CLEAR     80  45  28 E6        29.98F
PIERRE         CLEAR     76  55  48 E6        29.93S
CUSTER         CLEAR     71  44  37 E14       30.13F
ELLSWORTH AFB  CLEAR     81  46  29 SE6       29.97F
PHILIP         CLEAR     82  49  31 E12       29.93F
PINE RIDGE     CLEAR     79  51  37 E6        30.00S
SPEARFISH      LGT RAIN  81  43  26 E10       30.01F
WINNER         FAIR      77  61  57 E3        29.98R
$$

SDZ004>011-016>023-039-040-190200-
NORTHEAST SOUTH DAKOTA

CITY           SKY/WX    TMP DP  RH WIND       PRES   REMARKS
ABERDEEN       CLEAR     73  63  70 CALM      29.93R
WATERTOWN      CLEAR     66  61  84 NE8       29.92F
BROOKINGS      CLEAR     66  59  78 N13       29.92R
SISSETON         N/A     70  63  78 W3        29.90F
$$

SDZ017-020-022-023-036>040-048>070-190200-
SOUTHEAST SOUTH DAKOTA

CITY           SKY/WX    TMP DP  RH WIND       PRES   REMARKS
SIOUX FALLS    PTCLDY    73  61  65 NW12      29.90R
HURON          CLEAR     70  61  73 N6        29.94R
CHAMBERLAIN    CLEAR     76  61  59 CALM      29.97R
MITCHELL       CLEAR     71  62  73 NW7       29.95R
YANKTON        CLEAR     75  60  59 NW14      29.93R
$$

ABBREVIATIONS USED IN REMARKS
   TC - TEMPERATURE IN CELSIUS
  WCI - WIND CHILL INDEX
   HX - HEAT INDEX
  VSB - VISIBILITY





USA.gov is the U.S. government's official web portal to all federal, state and local government web resources and services.